Beverly, MA

3:23 PM EDT on May 22, 2018 (GMT -0400)
Beverly Municipal

Weather History for KBVY - June, 2013

Change the Weather History Date:

Sunday, June 9, 2013

  Actual Average Record
Temperature  
Mean Temperature 66 °F -  
Max Temperature 78 °F 69 °F 95 °F (1984)
Min Temperature 54 °F 50 °F 46 °F (1980)
Growing Degree Days 16 (Base 50)    
Moisture  
Dew Point 54 °F    
Average Humidity 66    
Maximum Humidity 97    
Minimum Humidity 43    
Precipitation  
Precipitation 0.00 in - - ()
Sea Level Pressure  
Sea Level Pressure 30.06 in    
Wind  
Wind Speed 4 mph (WNW)    
Max Wind Speed 12 mph    
Max Gust Speed 17 mph    
Visibility 10 miles    
Events      
Averages and records for this station are not official NWS values.
T = Trace of Precipitation, MM = Missing Value Source: NWS Daily Summary

Daily Weather History Graph

Daily Weather History Graph

Search for Another Location

Airport or City:

Astronomy

Jun. 09, 2013 Rise Set
Actual Time 5:05 AM EDT 8:20 PM EDT
Civil Twilight 4:31 AM EDT 8:55 PM EDT
Nautical Twilight 3:46 AM EDT 9:39 PM EDT
Astronomical Twilight 2:52 AM EDT 10:34 PM EDT
Moon 6:01 AM EDT (6/9) 9:03 PM EDT (6/9)
Length of Visible Light 16h 23m
Length of Day
15h 14m
New Moon, 1% of the Moon is Illuminated
Jun 9
New Moon
Jun 16
First Quarter
Jun 23
Full
Jun 30
Last Quarter
Jul 8
New

Hourly Weather History & Observations

Time (EDT) Temp. Dew Point Humidity Pressure Visibility Wind Dir Wind Speed Gust Speed Precip Events Conditions
12:53 AM 60.1 °F 57.0 °F 90% 29.99 in 10.0 mi West 4.6 mph - N/A   Clear
1:53 AM 57.9 °F 55.9 °F 93% 30.01 in 10.0 mi Calm Calm - N/A   Clear
2:53 AM 55.0 °F 54.0 °F 96% 30.01 in 10.0 mi Calm Calm - N/A   Clear
3:53 AM 55.9 °F 55.0 °F 97% 30.03 in 10.0 mi Calm Calm - N/A   Scattered Clouds
4:53 AM 55.9 °F 55.0 °F 97% 30.04 in 10.0 mi Calm Calm - N/A   Clear
5:53 AM 54.0 °F 53.1 °F 97% 30.04 in 10.0 mi Calm Calm - N/A   Clear
6:53 AM 61.0 °F 57.0 °F 87% 30.06 in 10.0 mi West 3.5 mph - N/A   Clear
7:53 AM 64.0 °F 55.9 °F 75% 30.08 in 10.0 mi West 8.1 mph - N/A   Clear
8:53 AM 68.0 °F 57.9 °F 70% 30.09 in 10.0 mi NW 9.2 mph - N/A   Clear
9:53 AM 70.0 °F 55.9 °F 61% 30.09 in 10.0 mi NNW 11.5 mph 17.3 mph N/A   Clear
10:53 AM 73.0 °F 55.9 °F 55% 30.08 in 10.0 mi WNW 6.9 mph - N/A   Clear
11:53 AM 73.9 °F 54.0 °F 50% 30.08 in 10.0 mi WNW 10.4 mph - N/A   Clear
12:17 PM 75.2 °F 53.6 °F 47% 30.08 in 10.0 mi Variable 5.8 mph 17.3 mph N/A   Scattered Clouds
12:53 PM 75.0 °F 52.0 °F 44% 30.06 in 10.0 mi WNW 8.1 mph - N/A   Mostly Cloudy
1:53 PM 75.0 °F 52.0 °F 44% 30.05 in 10.0 mi NW 11.5 mph 17.3 mph N/A   Mostly Cloudy
2:53 PM 77.0 °F 53.1 °F 43% 30.05 in 10.0 mi West 9.2 mph - N/A   Clear
3:53 PM 75.9 °F 54.0 °F 46% 30.05 in 10.0 mi WNW 9.2 mph - N/A   Mostly Cloudy
4:53 PM 75.9 °F 53.1 °F 45% 30.05 in 10.0 mi WNW 8.1 mph - N/A   Scattered Clouds
5:53 PM 77.0 °F 53.1 °F 43% 30.06 in 10.0 mi NW 9.2 mph - N/A   Mostly Cloudy
6:53 PM 75.0 °F 52.0 °F 44% 30.07 in 10.0 mi West 8.1 mph - N/A   Clear
7:53 PM 72.0 °F 53.1 °F 51% 30.08 in 10.0 mi West 5.8 mph - N/A   Clear
8:53 PM 70.0 °F 53.1 °F 55% 30.09 in 10.0 mi West 3.5 mph - N/A   Clear
9:53 PM 64.9 °F 55.0 °F 70% 30.11 in 10.0 mi Calm Calm - N/A   Clear
10:53 PM 61.0 °F 54.0 °F 78% 30.13 in 10.0 mi Calm Calm - N/A   Clear
11:53 PM 61.0 °F 54.0 °F 78% 30.14 in 10.0 mi Calm Calm - N/A   Clear